Weather in Dublin

Ireland     53°22′57″N   6°12′23″W
temp.,
°C
wind,
m/s
gust,
m/s
humid.,
%
clouds,
%
prec.,
mm/h
press.,
hPa
HPBL,
m
2 july, sat
sat201:00+10wsw511955 2.8 1012374
04:00+10sw51094100 0.0 1012370
07:00+11wsw6109374 0.0 1012539
10:00+15wsw68728 0.0 1013940
13:00+17wsw566770 0.9 10131364
16:00+17w677164 1.4 10131071
19:00+16w468193 2.4 1014766
22:00+12w499431 0.7 1015228
3 july, sun
sun301:00+10w510965 0.7 1017271
04:00+9w5109845 0.0 1018273
07:00+11w589128 0.0 1019511
10:00+14w678068 0.1 1020842
13:00+15w6767100 0.4 10201227
16:00+16w6865100 0.1 10201342
19:00+16wsw5869100 0.1 10201049
22:00+13wsw71275100 0.1 1020536
4 july, mon
mon401:00+10wsw5129253 0.1 1020383
04:00+12wsw61180100 0.0 1019800
07:00+12w61174100 0.0 1020895
10:00+14w686588 0.0 10211273
13:00+15wnw6868100 0.0 10221245
16:00+16wnw5868100 0.0 10221395
19:00+16wnw687111 0.1 10231032
22:00+11wnw5108193 0.0 1025330
5 july, tue
tue501:00+8w48872 0.0 1027138
04:00+7w49967 0.0 1027178
07:00+10wsw51088100 0.0 1027306
10:00+13wsw61082100 0.0 1028399
13:00+18w697894 0.1 1028867
16:00+19wnw587499 0.1 1028813
19:00+18wnw5980100 0.1 1028766
22:00+15w598749 0.0 1029442
6 july, wed
wed601:00+13w4897100 0.0 1029225
04:00+14w4895100 0.0 1029281
07:00+14w4792100 0.0 1029269
10:00+16w568880 0.1 1030396
13:00+20nw567396 0.1 10291067
16:00+19nnw457681 0.1 1030796
19:00+19nw358299 0.3 1030357
22:00+16nw34930 0.1 103173